Location: Praha
(50.0830°N, 14.4670°E)
Time: 16:01:29
(UTC+01:00)

ISS - Pass Details

Date: 02 February 2024
Orbit: 414 x 422 km, 51.6° (Epoch: 04 March)

Event Time Altitude Azimuth Distance (km) Brightness Sun altitude
Rises 17:47:49 0° 286° (WNW) 2,382 1.2 -8.5°
Reaches altitude 10° 17:50:07 10° 275° (W) 1,511 0.4 -8.8°
Maximum altitude 17:53:03 28° 214° (SW) 832 -1.6 -9.3°
Drops below altitude 10° 17:55:58 10° 154° (SSE) 1,496 -1.1 -9.7°
Enters shadow 17:59:22 -4° 139° (SE) 2,811 0.2 -10.2°
